Toms River, NJ

3:57 PM EDT on October 16, 2019 (GMT -0400)
Miller

Weather History for KMJX - August, 2019

Change the Weather History Date:

Tuesday, August 27, 2019

  Actual Average Record
Temperature  
Mean Temperature 64 °F -  
Max Temperature 73 °F 83 °F 96 °F (1993)
Min Temperature 55 °F 61 °F 46 °F (1963)
Degree Days  
Heating Degree Days 1    
Growing Degree Days 14 (Base 50)    
Moisture  
Dew Point 63 °F    
Average Humidity 77    
Maximum Humidity 97    
Minimum Humidity 69    
Precipitation  
Precipitation 0.00 in - - ()
Sea Level Pressure  
Sea Level Pressure 30.07 in    
Wind  
Wind Speed 2 mph (ENE)    
Max Wind Speed 7 mph    
Max Gust Speed -    
Visibility 10 miles    
Events      
Averages and records for this station are not official NWS values.
T = Trace of Precipitation, MM = Missing Value Source: NWS Daily Summary

Daily Weather History Graph

Daily Weather History Graph

Search for Another Location

Airport or City:

Astronomy

Aug. 27, 2019 Rise Set
Actual Time 6:20 AM EDT 7:36 PM EDT
Civil Twilight 5:51 AM EDT 8:04 PM EDT
Nautical Twilight 5:18 AM EDT 8:38 PM EDT
Astronomical Twilight 4:42 AM EDT 9:13 PM EDT
Moon 2:42 AM EDT (8/27) 5:55 PM EDT (8/27)
Length of Visible Light 14h 12m
Length of Day
13h 16m
Waning Crescent, 11% of the Moon is Illuminated
Aug 27
Waning Crescent
Aug 30
New
Sep 5
First Quarter
Sep 14
Full
Sep 21
Last Quarter

Hourly Weather History & Observations

Time (EDT) Temp. Dew Point Humidity Pressure Visibility Wind Dir Wind Speed Gust Speed Precip Events Conditions
12:56 AM 55.9 °F - N/A% 30.16 in 10.0 mi Calm Calm - N/A   Clear
1:56 AM - - N/A% 30.13 in 10.0 mi Calm Calm - N/A   Partly Cloudy
2:15 AM 55.4 °F - N/A% 30.13 in 10.0 mi Calm Calm - N/A   Mostly Cloudy
2:49 AM 57.2 °F - N/A% 30.12 in 10.0 mi Calm Calm - N/A   Mostly Cloudy
2:56 AM 57.0 °F - N/A% 30.12 in 10.0 mi North 3.5 mph - N/A   Mostly Cloudy
3:56 AM - - N/A% 30.10 in 10.0 mi Calm Calm - N/A   Clear
4:56 AM - - N/A% 30.09 in 10.0 mi Calm Calm - N/A   Partly Cloudy
5:56 AM - - N/A% 30.08 in 10.0 mi NNE 3.5 mph - N/A   Clear
6:56 AM - - N/A% 30.08 in 10.0 mi NE 3.5 mph - N/A   Clear
8:56 AM 66.0 °F - N/A% 30.12 in 10.0 mi Calm Calm - N/A   Clear
9:56 AM 69.1 °F 63.0 °F 81% 30.12 in 10.0 mi Variable 4.6 mph - N/A   Clear
10:56 AM 69.1 °F 63.0 °F 81% 30.11 in 10.0 mi ENE 6.9 mph - N/A   Clear
11:56 AM 71.1 °F 62.1 °F 73% 30.10 in 10.0 mi East 5.8 mph - N/A   Clear
12:46 PM 71.6 °F 62.6 °F 73% 30.07 in 10.0 mi ENE 6.9 mph - N/A   Mostly Cloudy
12:56 PM 72.0 °F 63.0 °F 73% 30.08 in 10.0 mi ENE 6.9 mph - N/A   Mostly Cloudy
1:32 PM 71.6 °F 62.6 °F 73% 30.06 in 10.0 mi ESE 5.8 mph - N/A   Scattered Clouds
1:39 PM 71.6 °F 62.6 °F 73% 30.06 in 10.0 mi East 5.8 mph - N/A   Mostly Cloudy
1:56 PM 72.0 °F 63.0 °F 73% 30.06 in 10.0 mi ESE 6.9 mph - N/A   Overcast
2:14 PM 73.4 °F 62.6 °F 69% 30.05 in 10.0 mi East 5.8 mph - N/A   Scattered Clouds
2:56 PM 72.0 °F 63.0 °F 73% 30.06 in 10.0 mi ENE 6.9 mph - N/A   Partly Cloudy
3:56 PM 72.0 °F 62.1 °F 71% 30.04 in 10.0 mi East 6.9 mph - N/A   Partly Cloudy
4:56 PM 71.1 °F 64.0 °F 78% 30.03 in 10.0 mi East 5.8 mph - N/A   Clear
5:56 PM 71.1 °F 66.0 °F 84% 30.02 in 10.0 mi ENE 5.8 mph - N/A   Clear
6:56 PM 70.0 °F 69.1 °F 97% 30.01 in 10.0 mi ENE 3.5 mph - N/A   Clear
7:41 PM 69.8 °F - N/A% 30.02 in 10.0 mi Calm Calm - N/A   Mostly Cloudy
7:54 PM 68.0 °F - N/A% 30.02 in 10.0 mi Calm Calm - N/A   Scattered Clouds
7:56 PM 68.0 °F - N/A% 30.03 in 10.0 mi Calm Calm - N/A   Scattered Clouds
8:56 PM 64.0 °F - N/A% - 7.0 mi North - - N/A   Scattered Clouds
9:11 PM 64.4 °F - N/A% 30.02 in 10.0 mi NE 3.5 mph - N/A   Mostly Cloudy
9:56 PM - - N/A% 30.03 in 10.0 mi NW 3.5 mph - N/A   Overcast
10:56 PM 66.0 °F - N/A% 30.04 in 10.0 mi Calm Calm - N/A   Overcast
11:56 PM - - N/A% 30.01 in 10.0 mi Calm Calm - N/A   Overcast